Terminal Aerodrome Forecast
Issued by NWS

Home | Current Version | Previous Version | Text Only | Print | Product List | Glossary On
Versions: 1 2 3 4 5 6 7 8 9 10 11 12 13 14
000
FTUS46 KSTO 152300
TAFRDD
TAF
KRDD 152339Z 1600/1624 01005KT P6SM SCT200
     FM161600 35012G23KT P6SM BKN200
     FM162000 36010G15KT P6SM SKC
     FM162200 36006KT P6SM SKC=

USA.gov is the U.S. government's official web portal to all federal, state and local government web resources and services.